Location: Unspecified
(49.9000°N, 0.0000°E)
Time: 05:04:40
(UTC+00:00)

ITUPSAT 1 - Visible Passes

Search period start: 04 April 2026 00:00
Search period end: 14 April 2026 00:00
Orbit: 686 x 698 km, 98.4° (Epoch: 29 March)

Date Brightness Start Highest point End Pass type
(mag) Time Alt. Az. Time Alt. Az. Time Alt. Az.
4 Apr ? 01:21:24 10° NNW 01:23:18 15° NW 01:23:18 15° NW visible
4 Apr ? 22:45:04 10° NE 22:46:04 15° NE 22:46:04 15° NE visible
5 Apr ? 00:22:16 10° N 00:24:45 28° NNW 00:24:45 28° NNW visible
5 Apr ? 23:24:09 10° NNE 23:26:11 25° NNE 23:26:11 25° NNE visible
6 Apr ? 01:02:24 10° N 01:04:51 20° NW 01:04:51 20° NW visible
6 Apr ? 22:27:07 10° NE 22:27:36 12° NE 22:27:36 12° NE visible
7 Apr ? 00:03:41 10° N 00:06:16 32° N 00:06:16 32° N visible
7 Apr ? 01:43:42 10° NW 01:44:56 11° NW 01:44:57 11° NW visible
7 Apr ? 23:05:49 10° NNE 23:07:42 22° NE 23:07:42 22° NE visible
8 Apr ? 00:43:35 10° N 00:46:22 26° NW 00:46:22 26° NW visible
8 Apr ? 23:45:09 10° NNE 23:47:48 34° NNE 23:47:48 34° NNE visible
9 Apr ? 01:24:04 10° NNW 01:26:28 15° NW 01:26:28 15° NW visible
9 Apr ? 22:47:37 10° NE 22:49:13 18° NE 22:49:13 18° NE visible
10 Apr ? 00:24:53 10° N 00:27:53 33° NNW 00:27:53 33° NNW visible
10 Apr ? 23:26:42 10° NNE 23:29:19 32° NNE 23:29:19 32° NNE visible
11 Apr ? 01:05:01 10° NNW 01:07:59 20° NW 01:07:59 20° NW visible
11 Apr ? 22:29:36 10° NE 22:30:43 14° ENE 22:30:43 14° ENE visible
12 Apr ? 00:06:15 10° N 00:09:24 40° N 00:09:24 40° N visible
12 Apr ? 01:46:29 10° NW 01:47:28 11° NW 01:48:04 10° WNW visible
12 Apr ? 23:08:20 10° NNE 23:10:48 27° NE 23:10:48 27° NE visible
13 Apr ? 00:46:10 10° N 00:49:29 27° NW 00:49:29 27° NW visible
13 Apr ? 22:12:01 10° ENE 22:12:13 10° ENE 22:12:13 10° ENE visible
13 Apr ? 23:47:42 10° NNE 23:50:53 43° NNE 23:50:53 43° NNE visible
